Location: Saratoga Springs
(43.0831°N, 73.7850°W)
Time: 22:15:30
(UTC-04:00)

Vanguard 1 Rocket - Pass Details

Date: 16 April 2024
Orbit: 651 x 4220 km, 34.3° (Epoch: 20 May)

Event Time Altitude Azimuth Distance (km) Brightness Sun altitude
Rises 01:21:32 0° 273° (W) 4,805 11.1 -36.3°
Reaches altitude 10° 01:24:22 10° 265° (W) 4,184 10.6 -36.2°
Enters shadow 01:25:28 14° 261° (W) 3,983 10.5 -36.2°
Maximum altitude 01:35:22 41° 201° (SSW) 3,574 - -35.8°
Exits shadow 01:49:58 17° 146° (SSE) 6,118 11.2 -35.1°
Drops below altitude 10° 01:54:20 10° 141° (SE) 7,007 11.6 -34.9°
Sets 02:01:03 0° 135° (SE) 8,317 12.1 -34.5°
